CZ-6A DEB, 54614

Orbit data source: Space-Track

CZ-6A DEB, 54614 is space debris in SSO originally from a launch on Fri, 11 Nov 2022 UTC launched from the Taiyaun Space Center, China (TSC). Debris objects in space refer to the collection of defunct objects orbiting the Earth. Examples of debris include non-operational satellites, rocket bodies, and fragments generated from explosions, collisions, or faulty payload assembly.

Loading next visibility...
Identifier
54614, 2022-151NQ
Orbit
SSO
Country
Flag of CNCN / PRC
Related business
Manufacturer
SAST
Mission
Spacecraft
Bus & Motor
Unknown
Mass
Unknown
Launch date (UTC)
2022-11-11 (4 years ago)
Launch vehicle
Unknown
Launch site
Taiyaun Space Center, China (TSC)
Object type
Payload
Rocket body
Debris
Shape & HBR
Unknown shape, 0.1 m
Radar Cross Section
Small (<0.1 m²)

Expand to show TLE details & history
Last TLE update: 2 days ago

TLE from 2 days ago
0 CZ-6A DEB
1 54614U 22151NQ  26171.18815807  .00055948  00000-0  35561-2 0  9999
2 54614  98.6348 261.7527 0038745 207.1695 152.7503 15.07981585120282
Epoch: 2026-06-20T04:30Z
TLE epoch observation values (Epoch: 2026-06-20T04:30:56.857Z)
Latitude
-0.00004°
Longitude
-74.39057°
Altitude
569.269 km
Speed
7.563 km/s
True Right ascension
17h 27m 00s
True Declination
0° 00' 00"
Sunlit
Object was in full shadow at epoch
Visualization orbit readout
Latitude
Unknown
Longitude
Unknown
Altitude
Unknown
Speed
Unknown
Apparent Right ascension
Unknown
Apparent Declination
Unknown
Sunlit
N/A
Visualization observer readout
Local Sidereal Time
21:34:38
Azimuth
Unknown
Elevation
Unknown
Doppler factor
Unknown
Orbital elements
Apogee altitude
566.209 km
Perigee altitude
512.605 km
Semi-major axis
6,917.544 km
Eccentricity
0.00387
Inclination
98.6348°
RAAN
261.7527°
Arg. of periapsis
207.1695°
True anomaly
152.95271°
Mean anomaly
152.7503°
Eccentric anomaly
152.85159°
Mean motion
3.77238 °/min
Orbital period
95.43 mins
BSTAR
0.0035561
Loading maneuver chart data...
Computing Atmospheric mass density...
Loading historical data...
Loading historical data...
Loading historical data...
Loading historical data...
Loading historical data...
Loading historical data...
Loading historical data...

Documentation

Showing up to 5 results
|